owner,sensor,date,latitude,longitude,air_temperature,qcFlag 
COMPS,ioos:station:USF.COMPS:ARP:1,2019-10-01T00:54:00,28.4330,-82.6670,30.87,11111222 
COMPS,ioos:station:USF.COMPS:ARP:1,2019-10-01T01:54:00,28.4330,-82.6670,30.02,11111222 
COMPS,ioos:station:USF.COMPS:ARP:1,2019-10-01T02:54:00,28.4330,-82.6670,29.48,11111222 
COMPS,ioos:station:USF.COMPS:ARP:1,2019-10-01T03:54:00,28.4330,-82.6670,28.64,11111222 
COMPS,ioos:station:USF.COMPS:ARP:1,2019-10-01T04:54:00,28.4330,-82.6670,27.81,11111222 
COMPS,ioos:station:USF.COMPS:ARP:1,2019-10-01T05:54:00,28.4330,-82.6670,27.57,11111222 
COMPS,ioos:station:USF.COMPS:ARP:1,2019-10-01T06:54:00,28.4330,-82.6670,26.97,11111222 
COMPS,ioos:station:USF.COMPS:ARP:1,2019-10-01T07:54:00,28.4330,-82.6670,26.71,11111222 
COMPS,ioos:station:USF.COMPS:ARP:1,2019-10-01T08:54:00,28.4330,-82.6670,26.18,11111222 
COMPS,ioos:station:USF.COMPS:ARP:1,2019-10-01T09:54:00,28.4330,-82.6670,26.01,11111222 
COMPS,ioos:station:USF.COMPS:ARP:1,2019-10-01T10:54:00,28.4330,-82.6670,25.91,11111222 
COMPS,ioos:station:USF.COMPS:ARP:1,2019-10-01T11:54:00,28.4330,-82.6670,26.11,11111222 
COMPS,ioos:station:USF.COMPS:ARP:1,2019-10-01T12:54:00,28.4330,-82.6670,27.97,11111222 
COMPS,ioos:station:USF.COMPS:ARP:1,2019-10-01T13:54:00,28.4330,-82.6670,32.01,11111222 
COMPS,ioos:station:USF.COMPS:ARP:1,2019-10-01T14:54:00,28.4330,-82.6670,30.84,11111222 
COMPS,ioos:station:USF.COMPS:ARP:1,2019-10-01T15:54:00,28.4330,-82.6670,33.55,11111222 
COMPS,ioos:station:USF.COMPS:ARP:1,2019-10-01T16:54:00,28.4330,-82.6670,34.68,11111222 
COMPS,ioos:station:USF.COMPS:ARP:1,2019-10-01T17:54:00,28.4330,-82.6670,34.48,11111222 
COMPS,ioos:station:USF.COMPS:ARP:1,2019-10-01T18:54:00,28.4330,-82.6670,33.78,11111222 
COMPS,ioos:station:USF.COMPS:ARP:1,2019-10-01T19:54:00,28.4330,-82.6670,35.4,11111222 
COMPS,ioos:station:USF.COMPS:ARP:1,2019-10-01T20:54:00,28.4330,-82.6670,34.81,11111222 
COMPS,ioos:station:USF.COMPS:ARP:1,2019-10-01T21:54:00,28.4330,-82.6670,35.38,11111222 
COMPS,ioos:station:USF.COMPS:ARP:1,2019-10-01T22:54:00,28.4330,-82.6670,34.64,11111222 
COMPS,ioos:station:USF.COMPS:ARP:1,2019-10-01T23:54:00,28.4330,-82.6670,33.75,11111222 
COMPS,ioos:station:USF.COMPS:ARP:1,2019-10-02T00:54:00,28.4330,-82.6670,30.07,11111222 
COMPS,ioos:station:USF.COMPS:ARP:1,2019-10-02T01:54:00,28.4330,-82.6670,29.05,11111222 
COMPS,ioos:station:USF.COMPS:ARP:1,2019-10-02T02:54:00,28.4330,-82.6670,28.08,11111222 
COMPS,ioos:station:USF.COMPS:ARP:1,2019-10-02T03:54:00,28.4330,-82.6670,26.95,11111222 
COMPS,ioos:station:USF.COMPS:ARP:1,2019-10-02T04:54:00,28.4330,-82.6670,26.22,11111222 
COMPS,ioos:station:USF.COMPS:ARP:1,2019-10-02T05:54:00,28.4330,-82.6670,25.8,11111222 
COMPS,ioos:station:USF.COMPS:ARP:1,2019-10-02T06:54:00,28.4330,-82.6670,25.35,11111222 
COMPS,ioos:station:USF.COMPS:ARP:1,2019-10-02T07:54:00,28.4330,-82.6670,25.24,11111222 
COMPS,ioos:station:USF.COMPS:ARP:1,2019-10-02T08:54:00,28.4330,-82.6670,25.15,11111222 
COMPS,ioos:station:USF.COMPS:ARP:1,2019-10-02T09:54:00,28.4330,-82.6670,25.02,11111222 
COMPS,ioos:station:USF.COMPS:ARP:1,2019-10-02T10:54:00,28.4330,-82.6670,25.1,11111222 
COMPS,ioos:station:USF.COMPS:ARP:1,2019-10-02T11:54:00,28.4330,-82.6670,25.0,11111222 
COMPS,ioos:station:USF.COMPS:ARP:1,2019-10-02T12:54:00,28.4330,-82.6670,27.08,11111222 
COMPS,ioos:station:USF.COMPS:ARP:1,2019-10-02T13:54:00,28.4330,-82.6670,31.4,11111222 
COMPS,ioos:station:USF.COMPS:ARP:1,2019-10-02T14:54:00,28.4330,-82.6670,31.02,11111222 
COMPS,ioos:station:USF.COMPS:ARP:1,2019-10-02T15:54:00,28.4330,-82.6670,33.81,11111222 
COMPS,ioos:station:USF.COMPS:ARP:1,2019-10-02T16:54:00,28.4330,-82.6670,35.07,11111222 
COMPS,ioos:station:USF.COMPS:ARP:1,2019-10-02T17:54:00,28.4330,-82.6670,35.53,11111222 
COMPS,ioos:station:USF.COMPS:ARP:1,2019-10-02T18:54:00,28.4330,-82.6670,35.52,11111222 
COMPS,ioos:station:USF.COMPS:ARP:1,2019-10-02T19:54:00,28.4330,-82.6670,36.06,11111222 
COMPS,ioos:station:USF.COMPS:ARP:1,2019-10-02T20:54:00,28.4330,-82.6670,36.35,11111222 
COMPS,ioos:station:USF.COMPS:ARP:1,2019-10-02T21:54:00,28.4330,-82.6670,35.83,11111222 
COMPS,ioos:station:USF.COMPS:ARP:1,2019-10-02T22:54:00,28.4330,-82.6670,35.27,11111222 
COMPS,ioos:station:USF.COMPS:ARP:1,2019-10-02T23:54:00,28.4330,-82.6670,33.99,11111222 
COMPS,ioos:station:USF.COMPS:ARP:1,2019-10-03T00:54:00,28.4330,-82.6670,30.64,11111222 
COMPS,ioos:station:USF.COMPS:ARP:1,2019-10-03T01:54:00,28.4330,-82.6670,29.8,11111222 
COMPS,ioos:station:USF.COMPS:ARP:1,2019-10-03T02:54:00,28.4330,-82.6670,28.79,11111222 
COMPS,ioos:station:USF.COMPS:ARP:1,2019-10-03T03:54:00,28.4330,-82.6670,27.73,11111222 
COMPS,ioos:station:USF.COMPS:ARP:1,2019-10-03T04:54:00,28.4330,-82.6670,26.7,11111222 
COMPS,ioos:station:USF.COMPS:ARP:1,2019-10-03T05:54:00,28.4330,-82.6670,25.96,11111222 
COMPS,ioos:station:USF.COMPS:ARP:1,2019-10-03T06:54:00,28.4330,-82.6670,25.87,11111222 
COMPS,ioos:station:USF.COMPS:ARP:1,2019-10-03T07:54:00,28.4330,-82.6670,25.42,11111222 
COMPS,ioos:station:USF.COMPS:ARP:1,2019-10-03T08:54:00,28.4330,-82.6670,24.74,11111222 
COMPS,ioos:station:USF.COMPS:ARP:1,2019-10-03T09:54:00,28.4330,-82.6670,24.57,11111222 
COMPS,ioos:station:USF.COMPS:ARP:1,2019-10-03T10:54:00,28.4330,-82.6670,24.17,11111222 
COMPS,ioos:station:USF.COMPS:ARP:1,2019-10-03T11:54:00,28.4330,-82.6670,24.43,11111222 
COMPS,ioos:station:USF.COMPS:ARP:1,2019-10-03T12:54:00,28.4330,-82.6670,26.93,11111222 
COMPS,ioos:station:USF.COMPS:ARP:1,2019-10-03T13:54:00,28.4330,-82.6670,29.42,11111222 
COMPS,ioos:station:USF.COMPS:ARP:1,2019-10-03T14:54:00,28.4330,-82.6670,32.29,11111222 
COMPS,ioos:station:USF.COMPS:ARP:1,2019-10-03T15:54:00,28.4330,-82.6670,33.62,11111222 
COMPS,ioos:station:USF.COMPS:ARP:1,2019-10-03T16:54:00,28.4330,-82.6670,34.13,11111222 
COMPS,ioos:station:USF.COMPS:ARP:1,2019-10-03T17:54:00,28.4330,-82.6670,35.13,11111222 
COMPS,ioos:station:USF.COMPS:ARP:1,2019-10-03T18:54:00,28.4330,-82.6670,35.37,11111222 
COMPS,ioos:station:USF.COMPS:ARP:1,2019-10-03T19:54:00,28.4330,-82.6670,36.38,11111222 
COMPS,ioos:station:USF.COMPS:ARP:1,2019-10-03T20:54:00,28.4330,-82.6670,36.42,11111222 
COMPS,ioos:station:USF.COMPS:ARP:1,2019-10-03T21:54:00,28.4330,-82.6670,36.1,11111222 
COMPS,ioos:station:USF.COMPS:ARP:1,2019-10-03T22:54:00,28.4330,-82.6670,35.48,11111222 
COMPS,ioos:station:USF.COMPS:ARP:1,2019-10-03T23:54:00,28.4330,-82.6670,34.61,11111222 
COMPS,ioos:station:USF.COMPS:ARP:1,2019-10-04T00:54:00,28.4330,-82.6670,31.64,11111222 
COMPS,ioos:station:USF.COMPS:ARP:1,2019-10-04T01:54:00,28.4330,-82.6670,29.44,11111222 
COMPS,ioos:station:USF.COMPS:ARP:1,2019-10-04T02:54:00,28.4330,-82.6670,28.15,11111222 
COMPS,ioos:station:USF.COMPS:ARP:1,2019-10-04T03:54:00,28.4330,-82.6670,27.04,11111222 
COMPS,ioos:station:USF.COMPS:ARP:1,2019-10-04T04:54:00,28.4330,-82.6670,25.88,11111222 
COMPS,ioos:station:USF.COMPS:ARP:1,2019-10-04T05:54:00,28.4330,-82.6670,25.1,11111222 
COMPS,ioos:station:USF.COMPS:ARP:1,2019-10-04T06:54:00,28.4330,-82.6670,24.25,11111222 
COMPS,ioos:station:USF.COMPS:ARP:1,2019-10-04T07:54:00,28.4330,-82.6670,24.23,11111222 
COMPS,ioos:station:USF.COMPS:ARP:1,2019-10-04T08:54:00,28.4330,-82.6670,24.25,11111222 
COMPS,ioos:station:USF.COMPS:ARP:1,2019-10-04T09:54:00,28.4330,-82.6670,23.41,11111222 
COMPS,ioos:station:USF.COMPS:ARP:1,2019-10-04T10:54:00,28.4330,-82.6670,22.81,11111222 
COMPS,ioos:station:USF.COMPS:ARP:1,2019-10-04T11:54:00,28.4330,-82.6670,22.57,11111222 
COMPS,ioos:station:USF.COMPS:ARP:1,2019-10-04T12:54:00,28.4330,-82.6670,25.15,11111222 
COMPS,ioos:station:USF.COMPS:ARP:1,2019-10-04T13:54:00,28.4330,-82.6670,29.6,11111222 
COMPS,ioos:station:USF.COMPS:ARP:1,2019-10-04T14:54:00,28.4330,-82.6670,32.26,11111222 
COMPS,ioos:station:USF.COMPS:ARP:1,2019-10-04T15:54:00,28.4330,-82.6670,33.56,11111222 
COMPS,ioos:station:USF.COMPS:ARP:1,2019-10-04T16:54:00,28.4330,-82.6670,34.38,11111222 
COMPS,ioos:station:USF.COMPS:ARP:1,2019-10-04T17:54:00,28.4330,-82.6670,32.94,11111222 
COMPS,ioos:station:USF.COMPS:ARP:1,2019-10-04T18:54:00,28.4330,-82.6670,31.62,11111222 
COMPS,ioos:station:USF.COMPS:ARP:1,2019-10-04T19:54:00,28.4330,-82.6670,33.78,11111222 
COMPS,ioos:station:USF.COMPS:ARP:1,2019-10-04T20:54:00,28.4330,-82.6670,33.86,11111222 
COMPS,ioos:station:USF.COMPS:ARP:1,2019-10-04T21:54:00,28.4330,-82.6670,33.54,11111222 
COMPS,ioos:station:USF.COMPS:ARP:1,2019-10-04T22:54:00,28.4330,-82.6670,33.42,11111222 
COMPS,ioos:station:USF.COMPS:ARP:1,2019-10-04T23:54:00,28.4330,-82.6670,33.46,11111222 
COMPS,ioos:station:USF.COMPS:ARP:1,2019-10-05T00:54:00,28.4330,-82.6670,33.64,11111222 
COMPS,ioos:station:USF.COMPS:ARP:1,2019-10-05T01:54:00,28.4330,-82.6670,28.88,11111222 
COMPS,ioos:station:USF.COMPS:ARP:1,2019-10-05T02:54:00,28.4330,-82.6670,28.99,11111222 
COMPS,ioos:station:USF.COMPS:ARP:1,2019-10-05T03:54:00,28.4330,-82.6670,28.96,11111222 
COMPS,ioos:station:USF.COMPS:ARP:1,2019-10-05T04:54:00,28.4330,-82.6670,28.26,11111222 
COMPS,ioos:station:USF.COMPS:ARP:1,2019-10-05T05:54:00,28.4330,-82.6670,27.3,11111222 
COMPS,ioos:station:USF.COMPS:ARP:1,2019-10-05T06:54:00,28.4330,-82.6670,26.86,11111222 
COMPS,ioos:station:USF.COMPS:ARP:1,2019-10-05T07:54:00,28.4330,-82.6670,26.58,11111222 
COMPS,ioos:station:USF.COMPS:ARP:1,2019-10-05T08:54:00,28.4330,-82.6670,26.24,11111222 
COMPS,ioos:station:USF.COMPS:ARP:1,2019-10-05T09:54:00,28.4330,-82.6670,25.96,11111222 
COMPS,ioos:station:USF.COMPS:ARP:1,2019-10-05T10:54:00,28.4330,-82.6670,25.7,11111222 
COMPS,ioos:station:USF.COMPS:ARP:1,2019-10-05T11:54:00,28.4330,-82.6670,25.49,11111222 
COMPS,ioos:station:USF.COMPS:ARP:1,2019-10-05T12:54:00,28.4330,-82.6670,27.97,11111222 
COMPS,ioos:station:USF.COMPS:ARP:1,2019-10-05T13:54:00,28.4330,-82.6670,30.9,11111222 
COMPS,ioos:station:USF.COMPS:ARP:1,2019-10-05T14:54:00,28.4330,-82.6670,32.58,11111222 
COMPS,ioos:station:USF.COMPS:ARP:1,2019-10-05T15:54:00,28.4330,-82.6670,33.8,11111222 
COMPS,ioos:station:USF.COMPS:ARP:1,2019-10-05T16:54:00,28.4330,-82.6670,34.79,11111222 
COMPS,ioos:station:USF.COMPS:ARP:1,2019-10-05T17:54:00,28.4330,-82.6670,35.46,11111222 
COMPS,ioos:station:USF.COMPS:ARP:1,2019-10-05T18:54:00,28.4330,-82.6670,35.97,11111222 
COMPS,ioos:station:USF.COMPS:ARP:1,2019-10-05T19:54:00,28.4330,-82.6670,35.96,11111222 
COMPS,ioos:station:USF.COMPS:ARP:1,2019-10-05T20:54:00,28.4330,-82.6670,36.65,11111222 
COMPS,ioos:station:USF.COMPS:ARP:1,2019-10-05T21:54:00,28.4330,-82.6670,35.94,11111222 
COMPS,ioos:station:USF.COMPS:ARP:1,2019-10-05T22:54:00,28.4330,-82.6670,35.2,11111222 
COMPS,ioos:station:USF.COMPS:ARP:1,2019-10-05T23:54:00,28.4330,-82.6670,31.2,11111222 
COMPS,ioos:station:USF.COMPS:ARP:1,2019-10-06T00:54:00,28.4330,-82.6670,30.21,11111222 
COMPS,ioos:station:USF.COMPS:ARP:1,2019-10-06T01:54:00,28.4330,-82.6670,29.45,11111222 
COMPS,ioos:station:USF.COMPS:ARP:1,2019-10-06T02:54:00,28.4330,-82.6670,28.48,11111222 
COMPS,ioos:station:USF.COMPS:ARP:1,2019-10-06T03:54:00,28.4330,-82.6670,27.71,11111222 
COMPS,ioos:station:USF.COMPS:ARP:1,2019-10-06T04:54:00,28.4330,-82.6670,27.18,11111222 
COMPS,ioos:station:USF.COMPS:ARP:1,2019-10-06T05:54:00,28.4330,-82.6670,26.75,11111222 
COMPS,ioos:station:USF.COMPS:ARP:1,2019-10-06T06:54:00,28.4330,-82.6670,26.6,11111222 
COMPS,ioos:station:USF.COMPS:ARP:1,2019-10-06T07:54:00,28.4330,-82.6670,26.08,11111222 
COMPS,ioos:station:USF.COMPS:ARP:1,2019-10-06T08:54:00,28.4330,-82.6670,25.56,11111222 
COMPS,ioos:station:USF.COMPS:ARP:1,2019-10-06T09:54:00,28.4330,-82.6670,24.92,11111222 
COMPS,ioos:station:USF.COMPS:ARP:1,2019-10-06T10:54:00,28.4330,-82.6670,24.74,11111222 
COMPS,ioos:station:USF.COMPS:ARP:1,2019-10-06T11:54:00,28.4330,-82.6670,25.15,11111222 
COMPS,ioos:station:USF.COMPS:ARP:1,2019-10-06T12:54:00,28.4330,-82.6670,27.26,11111222 
COMPS,ioos:station:USF.COMPS:ARP:1,2019-10-06T13:54:00,28.4330,-82.6670,31.35,11111222 
COMPS,ioos:station:USF.COMPS:ARP:1,2019-10-06T14:54:00,28.4330,-82.6670,32.21,11111222 
COMPS,ioos:station:USF.COMPS:ARP:1,2019-10-06T15:54:00,28.4330,-82.6670,30.17,11111222 
COMPS,ioos:station:USF.COMPS:ARP:1,2019-10-06T16:54:00,28.4330,-82.6670,33.92,11111222 
COMPS,ioos:station:USF.COMPS:ARP:1,2019-10-06T17:54:00,28.4330,-82.6670,35.2,11111222 
COMPS,ioos:station:USF.COMPS:ARP:1,2019-10-06T18:54:00,28.4330,-82.6670,34.99,11111222 
COMPS,ioos:station:USF.COMPS:ARP:1,2019-10-06T19:54:00,28.4330,-82.6670,35.28,11111222 
COMPS,ioos:station:USF.COMPS:ARP:1,2019-10-06T20:54:00,28.4330,-82.6670,34.96,11111222 
COMPS,ioos:station:USF.COMPS:ARP:1,2019-10-06T21:54:00,28.4330,-82.6670,34.32,11111222 
COMPS,ioos:station:USF.COMPS:ARP:1,2019-10-06T22:54:00,28.4330,-82.6670,33.99,11111222 
COMPS,ioos:station:USF.COMPS:ARP:1,2019-10-06T23:54:00,28.4330,-82.6670,30.69,11111222 
COMPS,ioos:station:USF.COMPS:ARP:1,2019-10-07T00:54:00,28.4330,-82.6670,30.13,11111222 
COMPS,ioos:station:USF.COMPS:ARP:1,2019-10-07T01:54:00,28.4330,-82.6670,29.02,11111222 
COMPS,ioos:station:USF.COMPS:ARP:1,2019-10-07T02:54:00,28.4330,-82.6670,28.55,11111222 
COMPS,ioos:station:USF.COMPS:ARP:1,2019-10-07T03:54:00,28.4330,-82.6670,28.35,11111222 
COMPS,ioos:station:USF.COMPS:ARP:1,2019-10-07T04:54:00,28.4330,-82.6670,27.57,11111222 
COMPS,ioos:station:USF.COMPS:ARP:1,2019-10-07T05:54:00,28.4330,-82.6670,26.85,11111222 
COMPS,ioos:station:USF.COMPS:ARP:1,2019-10-07T06:54:00,28.4330,-82.6670,26.57,11111222 
COMPS,ioos:station:USF.COMPS:ARP:1,2019-10-07T07:54:00,28.4330,-82.6670,26.8,11111222 
COMPS,ioos:station:USF.COMPS:ARP:1,2019-10-07T08:54:00,28.4330,-82.6670,26.69,11111222 
COMPS,ioos:station:USF.COMPS:ARP:1,2019-10-07T09:54:00,28.4330,-82.6670,26.67,11111222 
COMPS,ioos:station:USF.COMPS:ARP:1,2019-10-07T10:54:00,28.4330,-82.6670,26.78,11111222 
COMPS,ioos:station:USF.COMPS:ARP:1,2019-10-07T11:54:00,28.4330,-82.6670,26.89,11111222 
COMPS,ioos:station:USF.COMPS:ARP:1,2019-10-07T13:54:00,28.4330,-82.6670,28.41,11111222 
COMPS,ioos:station:USF.COMPS:ARP:1,2019-10-07T14:54:00,28.4330,-82.6670,29.21,11111222 
COMPS,ioos:station:USF.COMPS:ARP:1,2019-10-07T15:54:00,28.4330,-82.6670,25.06,11111222 
COMPS,ioos:station:USF.COMPS:ARP:1,2019-10-07T16:54:00,28.4330,-82.6670,28.14,11111222 
COMPS,ioos:station:USF.COMPS:ARP:1,2019-10-07T17:54:00,28.4330,-82.6670,27.83,11111222 
COMPS,ioos:station:USF.COMPS:ARP:1,2019-10-07T18:54:00,28.4330,-82.6670,30.25,11111222 
COMPS,ioos:station:USF.COMPS:ARP:1,2019-10-07T19:54:00,28.4330,-82.6670,29.57,11111222 
COMPS,ioos:station:USF.COMPS:ARP:1,2019-10-07T20:54:00,28.4330,-82.6670,28.99,11111222 
COMPS,ioos:station:USF.COMPS:ARP:1,2019-10-07T21:54:00,28.4330,-82.6670,28.81,11111222 
COMPS,ioos:station:USF.COMPS:ARP:1,2019-10-07T22:54:00,28.4330,-82.6670,28.16,11111222 
COMPS,ioos:station:USF.COMPS:ARP:1,2019-10-07T23:54:00,28.4330,-82.6670,27.65,11111222 
COMPS,ioos:station:USF.COMPS:ARP:1,2019-10-08T00:54:00,28.4330,-82.6670,26.53,11111222 
COMPS,ioos:station:USF.COMPS:ARP:1,2019-10-08T01:54:00,28.4330,-82.6670,26.19,11111222 
COMPS,ioos:station:USF.COMPS:ARP:1,2019-10-08T02:54:00,28.4330,-82.6670,25.51,11111222 
COMPS,ioos:station:USF.COMPS:ARP:1,2019-10-08T03:54:00,28.4330,-82.6670,25.49,11111222 
COMPS,ioos:station:USF.COMPS:ARP:1,2019-10-08T04:54:00,28.4330,-82.6670,25.43,11111222 
COMPS,ioos:station:USF.COMPS:ARP:1,2019-10-08T05:54:00,28.4330,-82.6670,25.63,11111222 
COMPS,ioos:station:USF.COMPS:ARP:1,2019-10-08T06:54:00,28.4330,-82.6670,26.04,11111222 
COMPS,ioos:station:USF.COMPS:ARP:1,2019-10-08T07:54:00,28.4330,-82.6670,26.44,11111222 
COMPS,ioos:station:USF.COMPS:ARP:1,2019-10-08T08:54:00,28.4330,-82.6670,25.93,11111222 
COMPS,ioos:station:USF.COMPS:ARP:1,2019-10-08T09:54:00,28.4330,-82.6670,26.14,11111222 
COMPS,ioos:station:USF.COMPS:ARP:1,2019-10-08T10:54:00,28.4330,-82.6670,25.8,11111222 
COMPS,ioos:station:USF.COMPS:ARP:1,2019-10-08T11:54:00,28.4330,-82.6670,26.09,11111222 
COMPS,ioos:station:USF.COMPS:ARP:1,2019-10-08T12:54:00,28.4330,-82.6670,26.75,11111222 
COMPS,ioos:station:USF.COMPS:ARP:1,2019-10-08T13:54:00,28.4330,-82.6670,27.77,11111222 
COMPS,ioos:station:USF.COMPS:ARP:1,2019-10-08T14:54:00,28.4330,-82.6670,29.31,11111222 
COMPS,ioos:station:USF.COMPS:ARP:1,2019-10-08T15:54:00,28.4330,-82.6670,31.92,11111222 
COMPS,ioos:station:USF.COMPS:ARP:1,2019-10-08T16:54:00,28.4330,-82.6670,32.66,11111222 
COMPS,ioos:station:USF.COMPS:ARP:1,2019-10-08T17:54:00,28.4330,-82.6670,34.0,11111222 
COMPS,ioos:station:USF.COMPS:ARP:1,2019-10-08T18:54:00,28.4330,-82.6670,33.16,11111222 
COMPS,ioos:station:USF.COMPS:ARP:1,2019-10-08T19:54:00,28.4330,-82.6670,34.27,11111222 
COMPS,ioos:station:USF.COMPS:ARP:1,2019-10-08T20:54:00,28.4330,-82.6670,30.91,11111222 
COMPS,ioos:station:USF.COMPS:ARP:1,2019-10-08T21:54:00,28.4330,-82.6670,28.97,11111222 
COMPS,ioos:station:USF.COMPS:ARP:1,2019-10-08T22:54:00,28.4330,-82.6670,27.4,11111222 
COMPS,ioos:station:USF.COMPS:ARP:1,2019-10-08T23:54:00,28.4330,-82.6670,26.82,11111222 
COMPS,ioos:station:USF.COMPS:ARP:1,2019-10-09T00:54:00,28.4330,-82.6670,27.58,11111222 
COMPS,ioos:station:USF.COMPS:ARP:1,2019-10-09T01:54:00,28.4330,-82.6670,27.11,11111222 
COMPS,ioos:station:USF.COMPS:ARP:1,2019-10-09T02:54:00,28.4330,-82.6670,26.47,11111222 
COMPS,ioos:station:USF.COMPS:ARP:1,2019-10-09T03:54:00,28.4330,-82.6670,26.22,11111222 
COMPS,ioos:station:USF.COMPS:ARP:1,2019-10-09T04:54:00,28.4330,-82.6670,26.03,11111222 
COMPS,ioos:station:USF.COMPS:ARP:1,2019-10-09T05:54:00,28.4330,-82.6670,25.96,11111222 
COMPS,ioos:station:USF.COMPS:ARP:1,2019-10-09T06:54:00,28.4330,-82.6670,25.71,11111222 
COMPS,ioos:station:USF.COMPS:ARP:1,2019-10-09T07:54:00,28.4330,-82.6670,25.68,11111222 
COMPS,ioos:station:USF.COMPS:ARP:1,2019-10-09T08:54:00,28.4330,-82.6670,25.79,11111222 
COMPS,ioos:station:USF.COMPS:ARP:1,2019-10-09T09:54:00,28.4330,-82.6670,25.79,11111222 
COMPS,ioos:station:USF.COMPS:ARP:1,2019-10-09T10:54:00,28.4330,-82.6670,25.76,11111222 
COMPS,ioos:station:USF.COMPS:ARP:1,2019-10-09T11:54:00,28.4330,-82.6670,25.95,11111222 
COMPS,ioos:station:USF.COMPS:ARP:1,2019-10-09T12:54:00,28.4330,-82.6670,26.24,11111222 
COMPS,ioos:station:USF.COMPS:ARP:1,2019-10-09T13:54:00,28.4330,-82.6670,27.21,11111222 
COMPS,ioos:station:USF.COMPS:ARP:1,2019-10-09T14:54:00,28.4330,-82.6670,28.68,11111222 
COMPS,ioos:station:USF.COMPS:ARP:1,2019-10-09T15:54:00,28.4330,-82.6670,31.52,11111222 
COMPS,ioos:station:USF.COMPS:ARP:1,2019-10-09T16:54:00,28.4330,-82.6670,32.36,11111222 
COMPS,ioos:station:USF.COMPS:ARP:1,2019-10-09T17:54:00,28.4330,-82.6670,32.63,11111222 
COMPS,ioos:station:USF.COMPS:ARP:1,2019-10-09T18:54:00,28.4330,-82.6670,29.55,11111222 
COMPS,ioos:station:USF.COMPS:ARP:1,2019-10-09T19:54:00,28.4330,-82.6670,29.01,11111222 
COMPS,ioos:station:USF.COMPS:ARP:1,2019-10-09T20:54:00,28.4330,-82.6670,29.33,11111222 
COMPS,ioos:station:USF.COMPS:ARP:1,2019-10-09T21:54:00,28.4330,-82.6670,28.93,11111222 
COMPS,ioos:station:USF.COMPS:ARP:1,2019-10-10T00:54:00,28.4330,-82.6670,27.04,11111222 
COMPS,ioos:station:USF.COMPS:ARP:1,2019-10-10T01:54:00,28.4330,-82.6670,26.63,11111222 
COMPS,ioos:station:USF.COMPS:ARP:1,2019-10-10T02:54:00,28.4330,-82.6670,26.16,11111222 
COMPS,ioos:station:USF.COMPS:ARP:1,2019-10-10T03:54:00,28.4330,-82.6670,25.92,11111222 
COMPS,ioos:station:USF.COMPS:ARP:1,2019-10-10T04:54:00,28.4330,-82.6670,25.56,11111222 
COMPS,ioos:station:USF.COMPS:ARP:1,2019-10-10T05:54:00,28.4330,-82.6670,25.41,11111222 
COMPS,ioos:station:USF.COMPS:ARP:1,2019-10-10T06:54:00,28.4330,-82.6670,24.54,11111222 
COMPS,ioos:station:USF.COMPS:ARP:1,2019-10-10T07:54:00,28.4330,-82.6670,24.05,11111222 
COMPS,ioos:station:USF.COMPS:ARP:1,2019-10-10T08:54:00,28.4330,-82.6670,24.06,11111222 
COMPS,ioos:station:USF.COMPS:ARP:1,2019-10-10T09:54:00,28.4330,-82.6670,23.81,11111222 
COMPS,ioos:station:USF.COMPS:ARP:1,2019-10-10T10:54:00,28.4330,-82.6670,23.82,11111222 
COMPS,ioos:station:USF.COMPS:ARP:1,2019-10-10T11:54:00,28.4330,-82.6670,24.04,11111222 
COMPS,ioos:station:USF.COMPS:ARP:1,2019-10-10T12:54:00,28.4330,-82.6670,26.27,11111222 
COMPS,ioos:station:USF.COMPS:ARP:1,2019-10-10T13:54:00,28.4330,-82.6670,30.41,11111222 
COMPS,ioos:station:USF.COMPS:ARP:1,2019-10-10T15:54:00,28.4330,-82.6670,32.57,11111222 
COMPS,ioos:station:USF.COMPS:ARP:1,2019-10-10T16:54:00,28.4330,-82.6670,33.34,11111222 
COMPS,ioos:station:USF.COMPS:ARP:1,2019-10-10T17:54:00,28.4330,-82.6670,34.31,11111222 
COMPS,ioos:station:USF.COMPS:ARP:1,2019-10-10T18:54:00,28.4330,-82.6670,34.62,11111222 
COMPS,ioos:station:USF.COMPS:ARP:1,2019-10-10T19:54:00,28.4330,-82.6670,34.06,11111222 
COMPS,ioos:station:USF.COMPS:ARP:1,2019-10-10T20:54:00,28.4330,-82.6670,34.45,11111222 
COMPS,ioos:station:USF.COMPS:ARP:1,2019-10-10T21:54:00,28.4330,-82.6670,34.38,11111222 
COMPS,ioos:station:USF.COMPS:ARP:1,2019-10-10T22:54:00,28.4330,-82.6670,30.8,11111222 
COMPS,ioos:station:USF.COMPS:ARP:1,2019-10-10T23:54:00,28.4330,-82.6670,29.56,11111222 
COMPS,ioos:station:USF.COMPS:ARP:1,2019-10-11T00:54:00,28.4330,-82.6670,28.33,11111222 
COMPS,ioos:station:USF.COMPS:ARP:1,2019-10-11T01:54:00,28.4330,-82.6670,27.25,11111222 
COMPS,ioos:station:USF.COMPS:ARP:1,2019-10-11T02:54:00,28.4330,-82.6670,26.47,11111222 
COMPS,ioos:station:USF.COMPS:ARP:1,2019-10-11T03:54:00,28.4330,-82.6670,25.73,11111222 
COMPS,ioos:station:USF.COMPS:ARP:1,2019-10-11T04:54:00,28.4330,-82.6670,24.97,11111222 
COMPS,ioos:station:USF.COMPS:ARP:1,2019-10-11T05:54:00,28.4330,-82.6670,24.49,11111222 
COMPS,ioos:station:USF.COMPS:ARP:1,2019-10-11T06:54:00,28.4330,-82.6670,24.06,11111222 
COMPS,ioos:station:USF.COMPS:ARP:1,2019-10-11T07:54:00,28.4330,-82.6670,23.62,11111222 
COMPS,ioos:station:USF.COMPS:ARP:1,2019-10-11T08:54:00,28.4330,-82.6670,23.24,11111222 
COMPS,ioos:station:USF.COMPS:ARP:1,2019-10-11T09:54:00,28.4330,-82.6670,23.09,11111222 
COMPS,ioos:station:USF.COMPS:ARP:1,2019-10-11T10:54:00,28.4330,-82.6670,22.78,11111222 
COMPS,ioos:station:USF.COMPS:ARP:1,2019-10-11T11:54:00,28.4330,-82.6670,22.61,11111222 
COMPS,ioos:station:USF.COMPS:ARP:1,2019-10-11T12:54:00,28.4330,-82.6670,24.77,11111222 
COMPS,ioos:station:USF.COMPS:ARP:1,2019-10-11T13:54:00,28.4330,-82.6670,27.26,11111222 
COMPS,ioos:station:USF.COMPS:ARP:1,2019-10-11T14:54:00,28.4330,-82.6670,30.31,11111222 
COMPS,ioos:station:USF.COMPS:ARP:1,2019-10-11T15:54:00,28.4330,-82.6670,32.07,11111222 
COMPS,ioos:station:USF.COMPS:ARP:1,2019-10-11T16:54:00,28.4330,-82.6670,33.09,11111222 
COMPS,ioos:station:USF.COMPS:ARP:1,2019-10-11T17:54:00,28.4330,-82.6670,34.14,11111222 
COMPS,ioos:station:USF.COMPS:ARP:1,2019-10-11T18:54:00,28.4330,-82.6670,34.82,11111222 
COMPS,ioos:station:USF.COMPS:ARP:1,2019-10-11T19:54:00,28.4330,-82.6670,33.57,11111222 
COMPS,ioos:station:USF.COMPS:ARP:1,2019-10-11T20:54:00,28.4330,-82.6670,33.59,11111222 
COMPS,ioos:station:USF.COMPS:ARP:1,2019-10-11T21:54:00,28.4330,-82.6670,33.29,11111222 
COMPS,ioos:station:USF.COMPS:ARP:1,2019-10-11T22:54:00,28.4330,-82.6670,32.81,11111222 
COMPS,ioos:station:USF.COMPS:ARP:1,2019-10-11T23:54:00,28.4330,-82.6670,31.45,11111222 
COMPS,ioos:station:USF.COMPS:ARP:1,2019-10-12T00:54:00,28.4330,-82.6670,27.29,11111222 
COMPS,ioos:station:USF.COMPS:ARP:1,2019-10-12T01:54:00,28.4330,-82.6670,26.44,11111222 
COMPS,ioos:station:USF.COMPS:ARP:1,2019-10-12T02:54:00,28.4330,-82.6670,25.81,11111222 
COMPS,ioos:station:USF.COMPS:ARP:1,2019-10-12T03:54:00,28.4330,-82.6670,24.78,11111222 
COMPS,ioos:station:USF.COMPS:ARP:1,2019-10-12T04:54:00,28.4330,-82.6670,23.99,11111222 
COMPS,ioos:station:USF.COMPS:ARP:1,2019-10-12T05:54:00,28.4330,-82.6670,23.23,11111222 
COMPS,ioos:station:USF.COMPS:ARP:1,2019-10-12T06:54:00,28.4330,-82.6670,22.69,11111222 
COMPS,ioos:station:USF.COMPS:ARP:1,2019-10-12T07:54:00,28.4330,-82.6670,22.34,11111222 
COMPS,ioos:station:USF.COMPS:ARP:1,2019-10-12T08:54:00,28.4330,-82.6670,22.03,11111222 
COMPS,ioos:station:USF.COMPS:ARP:1,2019-10-12T09:54:00,28.4330,-82.6670,21.73,11111222 
COMPS,ioos:station:USF.COMPS:ARP:1,2019-10-12T10:54:00,28.4330,-82.6670,21.58,11111222 
COMPS,ioos:station:USF.COMPS:ARP:1,2019-10-12T11:54:00,28.4330,-82.6670,21.83,11111222 